loading
|

THOR ABLESTAR DEB, 350

Orbit data source: Space-Track

THOR ABLESTAR DEB, 350 is space debris in LEO originally from a launch on Thu, 29 Jun 1961 UTC launched from the Air Force Eastern Test Range (AFETR). Debris objects in space refer to the collection of defunct objects orbiting the Earth. Examples of debris include non-operational satellites, rocket bodies, and fragments generated from explosions, collisions, or faulty payload assembly.

Loading next visibility...
Loading greatness...
THOR ABLESTAR DEB details
Identifier
350, 1961-015DQ
Orbit
LEO
Last TLE update2 days ago
Origin
Flag of USUSAF SSD (US)
ManufacturerUnknown
Mission statusUnknown
MissionUnknown
Bus & MotorUnknown
MassUnknown
Launch date (UTC)
1961-06-29 (63 years ago)
Launch vehicleUnknown
Launch site
Air Force Eastern Test Range (AFETR)
Object type
Payload
Rocket body
Debris
Radar Cross SectionMedium (>0.1 m² and <1 m²)

Expand to show TLE details & history

TLE from 2 days ago
0 THOR ABLESTAR DEB
1 00350U 61015DQ  24249.95013533  .00000997  00000-0  44763-3 0  9993
2 00350  66.9112  93.0951 0133023 280.3819  78.2306 14.21776885270627
Epoch: 2024-09-05T22:48Z
Definitive object data (Epoch: 2024-09-05T22:48:11.692Z)
Latitude-0.00002°
Longitude125.5167°
Altitude803.16 km
Speed7.462 km/s
True Right ascension06h 12m 22s
True Declination0° 00' 00"
Sunlit
Object was in daylight at TLE epoch
Predictive object data (real-time)
Latitude-4.08322°
Longitude119.10511°
Altitude798.847 km
Speed7.466 km/s
Apparent Right ascension03h 12m 22s
Apparent Declination-31° 01' 60"
Sunlit
Object is in daylight
Predictive observer data (real-time)
Local Sidereal Time10:49:31
Azimuth257.772° W
Elevation-36.949°
Doppler factor1
Orbital elements
Apogee913.427 km
Perigee721.985 km
Semi-major axis7,195.843 km
Eccentricity0.0133023
Inclination66.9112°
RAAN93.0951°
Arg. of periapsis280.3819°
True anomaly79.72779°
Mean anomaly78.2306°
Eccentric anomaly78.97871°
Mean motion3.55566 °/min
BSTAR0.00044763
Period101.25 mins
No data available

THOR ABLESTAR DEB Visibility forecast

Observer location: 39.9160978°, -105.1181434

THOR ABLESTAR DEB is not visible in the next 10 days
Span
Click to sort rows by Start time (UTC) header in descending order
Start Az.
Max El. time (UTC)
Max El. Az.
Max El.
End time (UTC)
End Az.